Location: Stara Lesna
(49.1528°N, 20.2911°E)
Time: 19:13:35
(UTC+02:00)

Cosmos 1633 Rocket - Pass Details

Date: 13 July 2020
Orbit: 607 x 623 km, 82.5° (Epoch: 10 August)

Event Time Altitude Azimuth Distance (km) Brightness Sun altitude
Exits shadow 01:27:29 40° 205° (SSW) 924 3.4 -18.4°
Maximum altitude 01:29:01 73° 281° (W) 652 3.1 -18.4°
Drops below altitude 10° 01:33:27 10° 6° (N) 2,003 6.9 -18.2°
Sets 01:35:43 0° 9° (N) 2,916 8.2 -18.2°
